RH
20 20 23 26 39 27 80 100 77 52 45 78 54 49 42 69 66 64 75 66 69 58 50 58 52 53 67 74 62 61 58 69 79 77 87 96 100 100 97 79 74 76 82
15 15 20 25 25 30 34 59 100 100 94 84 86 50 62 92 73 69 81 69 77 69 67 54 57 55 56 52 53 51 53 61 85 84 89 100 100 80 58 54 66 90 87
37 30 25 18 24 31 35 39 32 58 100 100 100 94 71 88 100 82 82 79 79 77 73 66 70 61 62 62 59 56 58 70 81 86 92 100 100 93 60 57 61 89 90
50 57 58 43 32 26 23 28 38 50 54 64 100 100 97 71 97 100 99 92 92 90 85 80 79 79 71 72 67 70 62 66 62 75 92 100 99 52 52 54 67 100 97
31 48 59 61 45 34 43 39 39 36 34 60 86 97 100 100 78 97 100 100 100 100 93 86 91 87 91 84 92 96 92 79 75 71 68 66 54 45 45 48 88 100 100
11 10 10 9 33 62 45 45 40 45 50 46 56 65 81 89 86 83 82 100 100 100 100 94 93 93 88 90 100 100 100 100 99 86 72 61 58 57 60 77 100 100 100
18 18 16 14 11 10 12 9 10 10 10 16 44 59 63 69 96 80 68 57 100 100 100 100 97 94 95 94 88 90 90 93 94 90 91 89 86 92 96 99 100 100 100
23 21 20 17 15 13 13 12 10 9 7 6 6 24 36 47 47 66 98 62 48 76 100 100 99 96 90 97 96 93 93 96 100 99 99 99 100 100 100 100 100 100 100
26 27 25 23 20 17 15 14 12 12 12 10 9 7 8 30 29 31 58 87 78 38 74 79 96 99 100 100 100 100 100 99 98 100 100 100 100 100 100 100 100 100 100
24 26 28 27 25 20 18 17 14 13 13 14 14 12 11 8 14 12 19 31 69 71 69 67 100 100 93 100 100 100 100 100 100 100 100 100 100 100 100 100 100 100 100
24 24 25 26 27 29 26 21 19 17 15 12 12 14 14 14 11 9 10 16 23 57 73 97 100 99 100 100 100 100 100 100 100 100 100 100 100 100 100 100 100 100 100
24 22 22 23 23 25 25 24 22 20 18 16 14 14 11 13 15 12 8 9 12 20 58 100 100 100 87 99 88 76 98 100 100 100 100 100 100 100 100 100 100 98 100
25 24 23 25 25 26 24 23 22 20 20 18 13 12 14 12 14 13 11 10 11 13 18 74 100 100 100 100 100 94 80 82 96 99 100 100 100 100 100 100 100 100 100
36 34 31 29 27 24 23 22 22 20 20 18 16 12 12 13 12 14 12 12 12 12 12 15 100 100 100 100 100 100 100 92 92 90 100 100 100 100 100 100 100 100 100
33 34 32 30 27 25 22 21 20 20 21 19 21 21 15 16 15 12 13 12 12 12 12 14 94 100 100 100 100 100 100 100 100 93 88 100 100 100 100 100 100 100 100
31 30 28 27 25 23 22 24 22 21 22 20 24 26 26 19 18 17 14 14 13 12 14 15 43 98 100 100 100 100 100 92 100 100 82 100 87 100 100 100 100 98 100
29 28 28 27 25 24 24 24 22 21 20 25 28 33 31 29 23 18 18 16 14 15 13 15 28 34 100 100 100 100 100 100 88 100 96 100 100 93 100 100 100 100 100
30 29 29 29 28 27 25 24 24 22 26 28 32 33 33 33 27 23 19 17 18 16 16 12 28 24 41 100 100 100 100 100 100 100 100 87 72 78 84 86 100 100 100
31 28 28 28 26 24 23 22 20 20 22 24 26 29 30 27 24 22 22 21 19 19 20 20 16 22 60 76 100 100 100 82 97 100 100 100 69 81 62 61 100 100 100
51 49 46 42 37 31 28 27 29 31 29 27 25 24 20 19 19 19 20 21 20 20 20 21 22 20 30 94 95 99 100 100 100 99 99 100 100 100 83 75 61 85 70
59 57 55 51 49 44 43 39 34 31 30 28 25 20 19 17 16 17 17 17 18 18 18 19 22 25 24 86 100 58 100 100 100 100 81 100 100 100 96 77 70 68 72
41 39 39 37 35 33 30 29 27 24 20 20 18 18 18 18 18 17 17 16 14 14 16 15 17 19 21 20 99 100 100 100 100 100 100 90 95 100 100 98 86 93 92
44 41 37 33 30 28 27 25 23 25 25 24 21 21 20 18 17 16 16 18 17 16 16 14 14 16 18 18 18 25 82 100 100 100 100 100 93 100 100 100 100 100 100
38 37 35 35 34 32 32 31 30 29 27 24 23 21 21 20 20 20 20 20 18 17 17 20 19 16 15 17 19 17 20 74 100 100 100 100 100 100 100 97 100 100 87
37 34 32 31 30 29 28 30 31 30 28 26 25 24 24 24 26 25 20 21 20 19 19 18 21 22 21 17 17 18 17 17 19 96 100 100 100 100 100 100 100 100 92
46 42 38 37 42 39 35 32 33 31 30 29 28 27 25 24 22 22 20 22 22 19 17 17 18 19 21 17 13 13 16 14 15 49 100 100 100 100 100 100 96 100 100
Wind_Speed
67 65 64 62 63 62 60 64 64 60 61 64 62 59 59 56 55 52 49 45 45 42 41 33 32 35 36 37 34 33 31 28 27 26 27 28 29 31 35 37 40 41 44
74 72 72 70 69 67 66 64 66 70 68 68 67 61 61 61 61 61 57 54 51 47 44 45 40 40 39 38 39 38 36 32 30 28 29 28 31 34 37 41 43 43 46
78 78 78 76 75 75 73 69 71 68 68 74 72 70 66 65 66 66 63 59 56 54 52 51 46 45 43 41 41 40 38 36 35 34 31 33 36 40 42 44 46 47 47
82 80 80 81 84 81 77 77 75 76 72 72 73 75 77 71 71 69 68 65 63 62 59 57 54 49 48 45 45 43 43 40 37 36 37 36 41 43 45 46 47 48 48
79 82 85 86 85 82 80 84 77 77 80 78 74 77 80 82 76 75 74 71 69 67 67 63 60 54 51 49 48 46 44 45 41 39 40 43 44 45 47 49 49 49 51
66 68 69 73 83 87 87 84 85 81 84 87 85 81 80 81 83 81 80 79 77 74 72 72 67 62 58 53 52 50 49 47 47 44 42 45 47 50 50 49 50 52 51
45 46 50 56 63 74 78 80 83 84 88 88 92 91 87 81 80 85 85 84 82 81 79 76 74 71 65 60 57 55 54 53 52 51 49 46 50 52 52 51 51 54 54
42 42 42 42 45 50 52 61 67 73 76 84 85 92 86 89 84 84 91 89 88 87 86 83 80 79 76 71 66 62 59 57 56 55 55 54 53 55 55 55 55 57 52
45 44 44 44 44 42 41 42 51 59 65 72 77 83 89 95 89 88 87 90 95 93 92 89 87 86 84 79 74 70 65 62 62 60 60 59 59 58 58 57 54 54 54
52 51 51 50 49 48 48 45 42 41 47 55 62 74 83 86 93 91 89 90 91 92 95 93 92 91 89 87 84 79 73 70 67 66 64 62 62 60 59 57 54 54 58
56 55 57 56 54 55 54 53 51 47 44 41 43 52 67 69 88 93 91 89 92 95 96 97 99 99 95 94 91 88 81 78 74 70 66 65 64 65 65 62 55 56 54
59 59 59 61 60 59 59 59 57 55 54 50 49 48 50 55 63 86 92 98 95 94 96 98 101 102 101 99 95 92 89 86 83 79 74 72 72 70 69 64 60 58 58
61 61 61 61 61 61 62 62 61 61 62 60 55 50 51 47 51 73 86 94 100 97 100 103 104 102 103 103 102 96 94 92 88 85 83 78 76 73 68 67 64 59 57
63 64 64 64 64 64 64 65 65 65 66 66 64 60 52 52 47 42 61 77 88 99 100 97 104 106 108 103 105 101 98 97 93 89 86 83 79 76 72 69 65 64 60
71 71 71 70 71 70 69 68 68 69 68 67 68 67 66 52 54 51 46 63 85 91 98 100 107 110 105 97 101 104 103 100 99 93 90 87 80 82 79 73 66 71 63
78 77 77 77 77 76 76 75 74 73 72 71 69 67 66 63 55 56 55 53 59 86 99 105 106 112 116 97 101 101 102 104 103 102 94 87 87 76 84 70 69 77 64
86 84 84 83 81 81 80 80 80 79 78 75 72 70 69 68 68 63 60 60 57 53 88 106 110 111 118 111 108 106 105 100 99 100 101 96 98 84 89 81 73 81 77
92 91 90 89 87 87 87 87 86 85 83 80 78 76 75 75 73 72 70 65 64 63 57 85 114 113 110 114 115 101 105 94 94 93 94 100 96 95 91 84 85 84 76
89 92 93 93 93 93 94 94 93 93 90 87 86 84 82 81 81 79 77 77 73 69 66 65 87 111 116 123 115 120 116 118 105 97 87 86 94 96 94 88 85 82 79
87 90 92 94 96 98 99 99 99 98 97 95 94 92 90 90 89 87 84 81 80 80 76 74 77 88 117 123 122 126 125 121 117 108 107 86 90 99 99 97 97 92 89
92 94 96 99 101 103 103 103 104 104 104 103 102 102 102 99 97 93 90 89 89 90 88 87 87 87 87 122 128 125 121 122 110 100 114 107 90 86 95 103 104 100 90
101 103 105 106 108 109 109 110 111 112 111 110 110 109 107 104 103 99 96 96 97 96 97 96 97 98 99 95 128 131 123 118 108 103 113 115 103 85 84 87 96 91 96
108 109 112 114 114 115 116 117 117 117 118 118 117 116 114 112 109 104 98 94 91 91 91 96 101 105 106 108 103 118 131 137 127 121 113 120 120 113 110 85 86 89 98
117 118 119 121 123 125 125 126 126 127 128 127 124 121 117 113 113 109 105 100 100 96 94 93 94 101 104 107 114 112 114 136 136 127 129 119 115 116 112 107 93 83 100
125 126 127 128 129 129 127 126 125 124 123 123 121 119 117 115 113 110 107 104 103 101 99 99 100 103 106 112 115 120 120 120 124 137 124 118 114 116 111 111 103 89 97
127 128 129 131 128 130 129 128 127 128 127 127 125 125 122 121 118 113 108 108 108 106 104 106 109 110 114 119 124 128 130 126 120 128 137 134 126 122 118 107 106 92 93
Wind_Direction
235 239 241 243 243 246 245 243 245 246 246 249 252 254 259 259 260 262 261 261 262 262 256 256 267 264 268 273 280 290 294 293 304 307 313 316 319 323 326 330 332 333 334
240 240 240 243 247 243 245 244 243 244 246 248 251 252 253 255 259 262 262 263 261 259 259 255 262 263 266 273 278 283 290 290 296 300 303 305 309 317 319 323 327 327 329
250 248 247 246 244 243 244 247 250 245 245 248 249 253 250 249 252 257 259 260 258 258 258 250 254 257 260 269 273 274 282 286 292 296 299 299 301 312 316 318 322 325 328
252 254 253 250 252 249 246 244 245 247 250 247 247 249 252 250 249 251 255 256 256 258 257 254 250 254 259 263 269 271 279 280 285 289 292 293 298 305 309 312 315 320 327
253 255 254 257 252 250 252 254 251 248 247 249 247 250 249 252 249 249 249 250 253 254 257 255 251 250 252 259 264 268 269 276 279 284 288 293 298 301 304 307 311 317 322
257 257 256 258 253 253 253 254 249 249 252 253 253 256 254 252 253 249 248 248 250 251 253 256 256 252 251 253 257 262 264 268 273 278 283 288 292 296 299 303 308 312 319
251 253 255 258 260 258 257 258 256 255 257 254 255 256 256 255 253 253 250 249 248 248 250 252 255 256 252 252 254 258 262 266 269 273 276 281 287 291 295 299 305 310 315
252 254 257 259 258 258 261 261 263 261 258 257 255 253 254 255 254 254 251 252 251 250 249 250 252 255 256 256 256 255 258 262 266 269 273 275 280 285 290 296 303 306 312
254 256 258 260 262 262 263 266 262 259 258 259 258 255 255 253 254 254 250 249 249 253 253 251 253 253 255 255 254 254 254 258 263 266 269 273 277 281 286 292 300 304 310
255 256 258 260 264 267 268 268 269 266 259 256 259 258 257 254 255 252 248 249 248 249 252 254 253 253 254 255 256 254 254 256 258 262 267 271 275 279 283 288 296 301 307
258 260 258 260 264 267 270 273 273 273 275 270 270 263 255 256 255 253 251 246 245 245 246 247 250 252 253 254 253 255 256 259 259 262 264 268 273 277 281 284 292 297 299
258 258 259 260 264 265 267 270 273 276 276 275 273 276 264 262 256 256 250 247 245 242 243 243 246 248 251 254 254 254 254 256 259 261 262 267 271 275 281 286 287 289 296
258 258 259 261 263 265 266 269 272 274 277 277 276 270 280 280 256 254 252 249 245 242 239 239 240 245 246 250 253 255 257 255 256 258 262 264 269 273 276 280 282 286 289
259 260 261 262 264 265 267 269 272 274 277 278 279 280 281 285 275 268 247 245 250 243 244 240 237 239 244 247 247 249 255 258 257 258 259 261 264 267 271 274 278 280 283
261 262 263 264 266 267 269 270 273 273 277 276 277 280 281 282 287 279 265 244 242 244 244 237 234 237 239 243 248 249 247 250 254 257 257 257 260 264 269 271 278 276 281
262 263 264 265 267 270 272 272 273 274 275 275 275 276 279 282 282 277 274 271 253 243 240 238 233 236 238 238 246 245 249 250 252 253 257 258 258 261 267 269 272 272 273
263 264 265 266 268 270 270 272 273 273 273 272 273 274 276 278 281 281 270 270 264 260 244 236 235 235 237 236 241 240 244 250 252 253 255 252 257 256 260 264 267 267 272
262 264 266 267 268 270 271 271 272 272 272 271 271 273 273 273 274 276 276 266 266 269 261 245 236 240 235 236 240 237 241 239 242 251 254 256 256 259 257 259 260 264 270
265 266 268 269 270 270 270 270 272 273 272 272 271 272 272 271 273 273 271 267 260 259 260 257 247 238 237 237 236 238 241 240 242 243 244 255 258 257 257 256 259 261 267
267 267 268 268 269 270 270 271 272 272 273 273 273 273 273 273 272 271 270 266 261 259 255 255 253 248 240 238 239 240 240 244 241 244 243 248 251 253 256 257 257 261 267
270 270 270 270 270 270 271 272 273 273 275 275 275 274 275 275 273 271 267 264 262 260 256 253 251 253 250 239 238 244 241 239 241 243 239 241 245 250 255 257 261 262 262
271 271 272 272 273 273 273 274 274 275 275 276 276 276 277 277 275 273 271 268 263 258 256 254 252 250 252 248 240 241 239 233 234 241 243 237 237 241 245 254 259 258 262
273 273 273 274 275 275 276 277 278 279 279 278 278 278 278 278 277 276 273 268 266 265 261 254 251 247 247 249 246 243 236 235 235 238 240 245 239 238 245 245 249 253 258
275 276 277 278 278 278 278 278 279 279 279 280 280 279 279 278 277 276 273 270 268 266 263 259 257 252 244 242 244 243 241 236 235 235 237 242 244 241 242 241 245 246 255
277 277 278 278 278 279 279 279 279 279 280 278 278 278 278 277 277 275 272 268 267 264 261 257 254 251 248 240 238 241 240 239 238 235 235 232 238 242 240 241 240 244 248
278 278 279 279 279 280 279 280 280 280 280 279 279 278 278 276 275 273 271 268 266 263 260 256 251 248 248 246 237 236 238 240 237 233 233 234 234 241 242 239 234 240 245